W4KBW Weather Reports


Display with metric or nautical units.
time (UTC)temp
F
wind
direction
speed
MPH
gust
MPH
rain 1hr
in
rain 24hr
in
rain mn
in
humidity
%
barometer
mb
20260510225820 86 37 2.0 3.0 0.00 0.00 0.00 100 1013.7
20260510225526 86 37 2.0 3.0 0.00 0.00 0.00 100 1013.7
20260510224321 88 26 1.0 4.0 0.00 0.00 0.00 100 1013.7
20260510224026 88 26 1.0 4.0 0.00 0.00 0.00 100 1013.7
20260510222646 89 346 3.0 5.0 0.00 0.00 0.00 100 1013.7
20260510222456 89 346 3.0 5.0 0.00 0.00 0.00 100 1013.7
20260510221254 89 309 3.0 3.0 0.00 0.00 0.00 100 1013.6
20260510220956 89 309 3.0 3.0 0.00 0.00 0.00 100 1013.6
20260510215635 89 327 3.0 4.0 0.00 0.00 0.00 100 1013.7
20260510215426 89 327 3.0 4.0 0.00 0.00 0.00 100 1013.7
20260510214015 88 304 3.0 5.0 0.00 0.00 0.00 100 1013.7
20260510213926 88 304 3.0 5.0 0.00 0.00 0.00 100 1013.7
20260510212508 86 319 2.0 3.0 0.00 0.00 0.00 100 1013.6
20260510212356 86 319 2.0 3.0 0.00 0.00 0.00 100 1013.6
20260510211113 86 314 3.0 5.0 0.00 0.00 0.00 100 1013.6
20260510210856 86 314 3.0 5.0 0.00 0.00 0.00 100 1013.6
20260510205326 87 354 3.0 3.0 0.00 0.00 0.00 100 1013.8
20260510203954 88 307 6.0 6.0 0.00 0.00 0.00 100 1014.0
20260510203826 88 307 6.0 6.0 0.00 0.00 0.00 100 1014.0
20260510202256 88 278 4.0 9.0 0.00 0.00 0.00 100 1013.9
20260510200935 89 258 3.0 9.0 0.00 0.00 0.00 100 1013.7
20260510200726 89 258 3.0 9.0 0.00 0.00 0.00 100 1013.7
20260510195701 91 307 4.0 10.0 0.00 0.00 0.00 100 1013.3
20260510195156 91 307 4.0 10.0 0.00 0.00 0.00 100 1013.3
20260510193811 93 337 3.0 10.0 0.00 0.00 0.00 100 1013.3
20260510193626 93 337 3.0 10.0 0.00 0.00 0.00 100 1013.3
20260510192349 95 229 4.0 9.0 0.00 0.00 0.00 100 1013.5
20260510192126 95 229 4.0 9.0 0.00 0.00 0.00 100 1013.5
20260510190747 95 242 4.0 8.0 0.00 0.00 0.00 100 1013.6
20260510190626 95 242 4.0 8.0 0.00 0.00 0.00 100 1013.6
20260510185254 96 330 0.0 4.0 0.00 0.00 0.00 100 1013.7
20260510185056 96 330 0.0 4.0 0.00 0.00 0.00 100 1013.7
20260510183809 96 276 2.0 8.0 0.00 0.00 0.00 100 1014.0
20260510183556 96 276 2.0 8.0 0.00 0.00 0.00 100 1014.0
20260510182251 95 230 0.0 5.0 0.00 0.00 0.00 100 1014.1
20260510182056 95 230 0.0 5.0 0.00 0.00 0.00 100 1014.1
20260510180649 94 176 6.0 6.0 0.00 0.00 0.00 100 1014.5
20260510180556 94 176 6.0 6.0 0.00 0.00 0.00 100 1014.5
20260510175253 94 229 2.0 5.0 0.00 0.00 0.00 100 1014.7
20260510175056 94 229 2.0 5.0 0.00 0.00 0.00 100 1014.7
20260510173526 94 236 3.0 5.0 0.00 0.00 0.00 100 1014.8
20260510172126 93 204 2.0 3.0 0.00 0.00 0.00 100 1015.0
20260510172026 93 204 2.0 3.0 0.00 0.00 0.00 100 1015.0
20260510170714 92 239 3.0 6.0 0.00 0.00 0.00 100 1015.2
20260510170526 92 239 3.0 6.0 0.00 0.00 0.00 100 1015.2
20260510164956 92 217 2.0 4.0 0.00 0.00 0.00 100 1015.3
20260510163956 90 251 5.0 7.0 0.00 0.00 0.00 100 1015.6
20260510163912 90 251 5.0 7.0 0.00 0.00 0.00 100 1015.6
20260510163456 90 251 5.0 7.0 0.00 0.00 0.00 100 1015.6
20260510161956 89 262 2.0 7.0 0.00 0.00 0.00 100 1015.7
20260510160730 90 288 3.0 5.0 0.00 0.00 0.00 100 1015.8
20260510160456 90 288 3.0 5.0 0.00 0.00 0.00 100 1015.8
20260510155322 90 188 3.0 3.0 0.00 0.00 0.00 100 1015.7
20260510154956 90 188 3.0 3.0 0.00 0.00 0.00 100 1015.7
20260510153941 91 146 4.0 8.0 0.00 0.00 0.00 100 1015.7
20260510153456 91 146 4.0 8.0 0.00 0.00 0.00 100 1015.7
20260510152238 90 176 4.0 4.0 0.00 0.00 0.00 100 1015.6
20260510151956 90 176 4.0 4.0 0.00 0.00 0.00 100 1015.6
20260510150752 89 209 0.0 6.0 0.00 0.00 0.00 100 1015.5
20260510150713 89 209 0.0 6.0 0.00 0.00 0.00 100 1015.5
20260510150426 89 209 0.0 6.0 0.00 0.00 0.00 100 1015.5
20260510145108 87 188 4.0 4.0 0.00 0.00 0.00 100 1015.3
20260510144926 87 188 4.0 4.0 0.00 0.00 0.00 100 1015.3
20260510143426 86 198 5.0 10.0 0.00 0.00 0.00 100 1015.4
20260510141856 85 240 2.0 2.0 0.00 0.00 0.00 100 1015.4
20260510140326 83 188 1.0 2.0 0.00 0.00 0.00 100 1015.3
20260510134756 82 184 0.0 6.0 0.00 0.00 0.00 100 1015.2
20260510133226 82 216 1.0 4.0 0.00 0.00 0.00 100 1015.0
20260510131916 81 207 2.0 3.0 0.00 0.00 0.00 100 1014.8
20260510131726 81 207 2.0 3.0 0.00 0.00 0.00 100 1014.8
20260510130352 81 178 3.0 5.0 0.00 0.00 0.00 100 1014.8
20260510130156 81 178 3.0 5.0 0.00 0.00 0.00 100 1014.8
20260510124913 80 175 3.0 4.0 0.00 0.00 0.00 100 1014.8
20260510124656 80 175 3.0 4.0 0.00 0.00 0.00 100 1014.8
20260510123351 79 179 3.0 5.0 0.00 0.00 0.00 100 1014.7
20260510123126 79 179 3.0 5.0 0.00 0.00 0.00 100 1014.7
20260510121556 78 187 3.0 3.0 0.00 0.00 0.00 100 1014.3
20260510120056 77 176 0.0 3.0 0.00 0.00 0.00 100 1014.3
20260510114556 77 180 0.0 3.0 0.00 0.00 0.00 100 1014.2
20260510113026 76 181 0.0 0.0 0.00 0.00 0.00 100 1013.9
20260510111526 76 178 2.0 3.0 0.00 0.00 0.00 100 1013.7
20260510105956 76 167 0.0 0.0 0.00 0.00 0.00 100 1013.4
20260510104456 76 127 0.0 1.0 0.00 0.00 0.00 100 1013.2
20260510103119 76 108 0.0 0.0 0.00 0.00 0.00 100 1012.8
20260510102926 76 108 0.0 0.0 0.00 0.00 0.00 100 1012.8
20260510101654 76 108 0.0 1.0 0.00 0.00 0.00 100 1012.7
20260510101426 76 108 0.0 1.0 0.00 0.00 0.00 100 1012.7
20260510100450 76 108 0.0 0.0 0.00 0.00 0.00 100 1012.7
20260510095856 76 108 0.0 0.0 0.00 0.00 0.00 100 1012.7
20260510094805 76 101 3.0 3.0 0.00 0.00 0.00 100 1012.7
20260510094356 76 101 3.0 3.0 0.00 0.00 0.00 100 1012.7
20260510092826 76 91 0.0 1.0 0.00 0.00 0.00 100 1012.6
20260510091256 76 71 1.0 1.0 0.00 0.00 0.00 100 1012.4
20260510085726 76 71 0.0 1.0 0.00 0.00 0.00 100 1012.3
20260510084156 76 71 3.0 3.0 0.00 0.00 0.00 100 1012.5
20260510082947 75 71 0.0 1.0 0.00 0.00 0.00 100 1012.3
20260510082626 75 71 0.0 1.0 0.00 0.00 0.00 100 1012.3
20260510081126 75 71 0.0 0.0 0.00 0.00 0.00 100 1012.2
20260510075904 75 71 0.0 0.0 0.00 0.00 0.00 100 1012.4
20260510075626 75 71 0.0 0.0 0.00 0.00 0.00 100 1012.4
20260510074255 75 71 0.0 0.0 0.00 0.00 0.00 100 1012.5
20260510074224 75 71 0.0 0.0 0.00 0.00 0.00 100 1012.5
20260510074056 75 71 0.0 0.0 0.00 0.00 0.00 100 1012.5
20260510072556 75 71 0.0 0.0 0.00 0.00 0.00 100 1012.6
20260510071426 75 71 0.0 0.0 0.00 0.00 0.00 100 1012.7
20260510071056 75 71 0.0 0.0 0.00 0.00 0.00 100 1012.7
20260510065809 75 71 0.0 0.0 0.00 0.00 0.00 100 1012.8
20260510065735 75 71 0.0 0.0 0.00 0.00 0.00 100 1012.8
20260510065556 75 71 0.0 0.0 0.00 0.00 0.00 100 1012.8
20260510064250 75 71 0.0 0.0 0.00 0.00 0.00 100 1012.7
20260510064026 75 71 0.0 0.0 0.00 0.00 0.00 100 1012.7
20260510063225 75 71 0.0 2.0 0.00 0.00 0.00 100 1012.8
20260510062526 75 71 0.0 2.0 0.00 0.00 0.00 100 1012.8
20260510060956 75 71 0.0 0.0 0.00 0.00 0.00 100 1013.2
20260510055456 75 71 0.0 0.0 0.00 0.00 0.00 100 1013.2
20260510053956 76 71 2.0 2.0 0.00 0.00 0.00 100 1013.2
20260510052846 75 69 0.0 2.0 0.00 0.00 0.00 100 1013.5
20260510052543 75 69 0.0 2.0 0.00 0.00 0.00 100 1013.5
20260510052456 75 69 0.0 2.0 0.00 0.00 0.00 100 1013.5
20260510050956 76 69 0.0 0.0 0.00 0.00 0.00 100 1013.7
20260510050255 76 69 0.0 2.0 0.00 0.00 0.00 100 1014.0
20260510045426 76 69 0.0 2.0 0.00 0.00 0.00 100 1014.0
20260510043926 76 69 0.0 1.0 0.00 0.00 0.00 100 1014.2
20260510043042 76 69 0.0 0.0 0.00 0.00 0.00 100 1013.8
20260510042356 76 69 0.0 0.0 0.00 0.00 0.00 100 1013.8
20260510041548 76 69 0.0 0.0 0.00 0.00 0.00 100 1013.9
20260510040826 76 69 0.0 0.0 0.00 0.00 0.00 100 1013.9
20260510035326 76 79 0.0 1.0 0.00 0.00 0.00 100 1013.7
20260510033756 77 115 1.0 3.0 0.00 0.00 0.00 100 1013.8
20260510032226 77 78 0.0 1.0 0.00 0.00 0.00 100 1013.8
20260510030726 77 78 0.0 1.0 0.00 0.00 0.00 100 1013.7
20260510030116 77 79 1.0 2.0 0.00 0.00 0.00 100 1013.7
20260510025226 77 79 1.0 2.0 0.00 0.00 0.00 100 1013.7
20260510023726 78 81 0.0 2.0 0.00 0.00 0.00 100 1013.7
20260510022226 78 28 0.0 2.0 0.00 0.00 0.00 100 1013.5
20260510021148 78 28 0.0 2.0 0.00 0.00 0.00 100 1013.5
20260510020656 78 28 0.0 2.0 0.00 0.00 0.00 100 1013.5
20260510015156 78 57 0.0 2.0 0.00 0.00 0.00 100 1013.3
20260510013958 78 38 1.0 3.0 0.00 0.00 0.00 100 1013.3
20260510013626 78 38 1.0 3.0 0.00 0.00 0.00 100 1013.3
20260510013150 78 15 0.0 3.0 0.00 0.01 0.00 100 1012.9
20260510012126 78 15 0.0 3.0 0.00 0.01 0.00 100 1012.9
20260510010556 78 32 0.0 3.0 0.00 0.23 0.00 100 1012.7
20260510005813 79 25 3.0 6.0 0.00 0.58 0.00 100 1012.5
20260510005056 79 25 3.0 6.0 0.00 0.58 0.00 100 1012.5
20260510003526 79 26 0.0 3.0 0.00 0.58 0.00 100 1012.3
20260510002026 79 30 0.0 3.0 0.00 0.58 0.00 100 1012.2
20260510000814 79 26 2.0 5.0 0.00 0.58 0.00 100 1012.1
20260510000526 79 26 2.0 5.0 0.00 0.58 0.00 100 1012.1
20260509235420 80 29 1.0 3.0 0.00 0.58 0.00 100 1012.1
20260509234956 80 29 1.0 3.0 0.00 0.58 0.00 100 1012.1
20260509233456 81 25 2.0 3.0 0.00 0.58 0.00 100 1011.7
20260509231955 82 39 1.0 6.0 0.00 0.58 0.00 100 1011.2
20260509230752 83 1 1.0 4.0 0.00 0.58 0.00 100 1011.0